Wind_Speed
14 13 12 12 11 11 11 11 11 10 11 10 10 9 9 9 8 8 8 8 8 7 7 7 7 7 7 7 6 6 5 5 5 5 5 5 5 5 5 5 5 5
15 15 14 14 13 13 13 12 12 11 11 11 11 10 10 10 9 9 9 9 9 9 8 8 7 7 7 7 7 7 6 5 5 5 5 5 6 5 4 4 4 4
16 16 16 15 15 14 14 14 13 13 12 12 12 12 11 11 11 11 10 10 9 9 9 8 8 7 7 7 7 7 7 6 6 5 5 5 5 5 4 4 5 5
17 17 16 16 16 15 15 15 14 14 13 13 13 12 12 12 12 12 12 11 11 10 10 10 9 9 9 9 8 8 8 7 7 7 6 6 6 5 5 6 6 5
19 18 17 17 16 16 15 16 16 15 14 14 14 13 13 13 13 13 13 12 12 11 11 11 10 10 11 10 10 9 9 9 8 8 8 8 7 7 7 7 6 6
20 20 19 18 18 17 17 17 17 16 15 15 15 14 14 15 15 14 13 12 12 12 12 11 11 11 11 11 11 10 10 10 10 10 10 9 9 8 8 7 7 6
22 21 21 20 19 18 18 18 18 17 17 16 16 16 16 16 16 15 14 13 13 13 12 12 11 11 12 12 11 11 11 11 11 11 10 10 9 9 8 8 7 7
24 23 22 21 20 20 20 20 19 18 18 17 17 17 17 17 16 16 15 15 14 14 13 12 12 12 12 12 12 11 11 11 11 11 10 10 9 9 8 8 7 7
25 24 24 23 22 22 22 22 21 20 18 18 18 18 17 17 16 16 16 16 16 15 14 14 13 13 13 13 13 12 12 12 12 11 11 10 10 9 9 8 8 7
26 26 25 24 24 24 24 23 22 21 20 19 19 19 18 17 17 16 16 17 17 16 16 15 14 14 14 13 13 13 13 12 12 12 11 11 10 10 9 9 8 8
26 26 26 26 26 26 26 25 24 22 21 21 20 20 19 19 18 17 17 18 18 17 17 16 15 15 14 14 13 13 13 13 13 12 12 12 11 11 10 9 9 9
27 27 27 27 27 27 27 27 25 24 23 23 22 22 21 20 19 19 19 19 19 19 18 17 16 16 16 15 14 14 14 14 14 13 13 13 12 12 11 11 10 10
27 27 28 29 29 29 29 29 28 27 26 25 25 24 23 22 21 21 21 21 20 20 19 18 18 18 18 17 16 16 16 15 15 15 14 14 13 12 12 12 12 11
28 28 29 30 31 31 31 31 30 29 29 28 27 27 25 24 24 23 23 23 22 21 21 21 20 20 20 20 19 19 18 18 17 16 15 15 14 13 13 13 13 13
28 29 30 31 32 33 33 33 33 32 31 31 30 29 28 27 26 26 25 25 25 24 24 23 22 22 22 23 23 22 21 20 19 18 17 16 15 15 15 15 15 14
30 31 33 33 33 33 34 35 35 34 34 33 32 31 31 30 29 29 28 28 27 27 26 25 25 25 25 25 25 25 24 23 22 21 19 18 18 17 17 17 17 16
33 34 35 34 33 33 33 35 35 36 35 35 35 35 34 33 32 31 31 31 30 30 29 28 27 28 28 28 27 27 26 25 24 23 21 20 20 20 20 20 19 19
37 38 37 36 34 33 34 35 35 36 37 38 38 37 36 36 35 34 34 33 33 32 31 30 30 30 30 29 29 29 28 27 26 25 24 23 23 23 23 22 22 21
40 41 40 39 38 37 38 38 36 36 37 40 41 40 39 39 38 37 37 36 35 35 34 33 33 32 32 31 31 30 29 28 28 27 27 26 26 26 25 25 24 24
43 44 43 44 43 41 41 41 40 38 37 39 42 42 42 41 40 39 39 38 38 37 36 35 35 35 34 33 32 31 31 29 30 30 29 28 28 28 28 27 26 26
44 45 45 47 47 45 44 43 43 42 40 40 41 41 40 40 41 41 40 39 39 38 38 37 36 35 35 35 33 33 32 31 31 31 31 30 30 30 30 29 28 27
39 39 40 42 45 46 47 46 43 44 45 43 40 37 36 37 38 40 41 39 38 38 39 38 37 36 35 35 34 34 34 33 32 32 33 33 33 32 31 31 30 29
28 30 32 35 38 42 46 47 45 46 47 43 38 37 37 37 38 39 39 38 37 37 38 38 38 37 33 30 30 33 34 35 35 34 33 34 34 34 33 32 31 31
23 26 28 31 35 39 43 45 46 47 47 44 41 42 42 40 40 40 38 37 36 35 36 37 37 35 32 29 30 33 36 37 37 35 33 33 34 34 34 33 32 31
20 22 22 25 30 34 39 44 45 46 47 47 45 46 45 43 41 40 39 38 37 36 36 37 36 35 33 31 32 35 36 37 37 35 33 33 33 33 33 32 32 31
20 20 21 24 28 30 34 40 43 44 47 48 47 45 45 45 43 41 41 40 39 39 39 39 37 36 35 35 35 36 36 36 36 35 33 33 32 32 32 32 32 32
Wind_Direction
196 196 200 202 203 209 213 213 212 209 207 207 204 200 199 203 204 204 208 211 211 209 209 207 204 201 200 202 204 205 209 212 214 215 214 215 220 227 231 237 246 250
201 199 201 204 205 207 212 215 216 215 214 213 212 210 207 207 207 207 209 210 210 209 209 208 205 203 202 202 201 200 205 206 205 207 208 210 214 217 220 226 234 239
208 207 206 207 208 209 210 213 216 218 219 217 216 216 215 212 211 210 210 212 211 210 213 212 209 210 210 208 203 199 200 204 205 204 204 206 209 210 212 218 226 232
216 216 215 213 212 212 213 215 217 218 220 221 220 220 221 221 219 216 213 214 215 214 216 218 217 218 219 215 210 206 204 206 210 211 210 211 212 214 217 222 230 237
222 223 224 223 220 217 217 219 219 218 220 223 224 224 225 228 229 226 222 220 221 220 220 221 222 224 224 223 220 217 215 215 216 219 221 222 224 225 227 231 237 242
225 226 229 229 227 223 222 223 223 222 221 222 224 226 227 229 232 233 232 230 229 228 225 223 225 226 227 228 227 225 225 224 225 226 227 228 230 233 234 235 238 243
225 227 229 231 232 229 227 227 226 225 224 222 223 225 227 230 232 232 233 235 236 235 230 225 225 226 226 226 226 226 226 226 227 228 228 227 226 228 232 235 239 245
224 226 229 232 233 232 230 229 228 227 225 223 222 223 225 228 230 231 232 233 234 234 232 228 225 224 224 225 224 224 224 224 225 228 229 230 229 229 230 234 239 246
224 225 227 229 231 232 232 231 230 228 226 223 223 224 225 225 225 227 229 231 232 231 230 228 225 223 223 223 222 222 224 223 222 226 229 232 234 234 236 240 245 250
228 228 228 228 229 230 231 232 231 230 228 226 226 226 225 225 223 223 226 228 229 229 228 228 227 226 225 225 224 223 224 224 223 225 227 230 232 235 239 244 248 253
233 233 232 232 231 230 230 231 232 233 231 230 230 229 228 227 225 224 224 226 228 229 230 230 229 230 230 229 229 229 228 227 227 226 227 229 230 232 236 239 243 248
237 237 236 236 235 234 233 231 231 232 233 233 234 233 232 231 230 229 228 228 229 230 231 231 231 231 233 232 231 232 232 231 231 231 232 233 234 235 238 240 242 244
237 238 239 239 239 239 237 236 234 232 232 233 235 237 237 237 236 236 235 235 235 234 233 233 232 232 234 235 233 232 233 233 234 234 235 237 239 240 242 245 246 247
235 237 238 239 240 242 242 241 239 237 236 235 236 238 240 241 241 241 242 243 243 243 240 238 235 234 235 236 236 235 235 236 236 236 238 239 241 243 245 247 249 250
234 238 239 238 237 239 242 244 243 242 241 240 240 241 243 244 245 245 245 246 248 248 248 245 242 239 238 238 238 238 238 239 239 238 238 239 241 244 247 248 250 252
231 236 241 240 237 236 238 242 245 245 244 244 243 244 246 247 249 249 249 249 249 249 249 250 249 247 245 243 242 241 241 242 242 242 241 241 243 246 248 250 252 254
231 236 242 244 243 242 241 240 242 246 247 246 245 244 245 246 248 249 251 251 251 250 249 249 250 251 250 249 248 246 245 245 245 245 245 245 246 247 249 250 251 253
236 238 241 244 245 247 248 244 240 242 245 247 246 245 244 243 244 245 246 248 249 250 250 249 248 249 250 251 251 251 250 250 250 250 249 248 248 248 249 249 249 251
242 241 242 244 243 242 246 247 242 239 241 245 247 247 245 243 243 243 244 245 246 246 248 249 249 249 248 249 250 251 251 251 252 253 252 251 251 251 250 251 251 251
246 246 246 246 243 240 241 246 246 242 240 241 245 247 248 247 245 245 244 245 246 246 246 247 248 250 251 251 251 252 251 251 252 253 252 252 252 252 252 253 253 254
248 250 249 249 248 244 239 239 244 245 240 238 240 244 248 251 250 248 246 246 247 248 248 249 249 251 254 255 255 255 255 254 253 254 255 254 253 253 253 253 253 255
249 249 250 250 250 248 243 238 241 245 243 240 238 239 243 248 250 250 247 246 246 247 249 250 249 249 252 256 259 260 260 258 257 256 257 258 257 256 256 255 255 256
258 255 254 255 253 250 246 241 239 242 245 244 241 238 238 239 243 248 249 247 246 246 247 248 248 247 248 253 259 263 264 261 259 257 257 259 259 259 258 258 258 257
266 261 253 251 250 248 247 243 238 239 240 238 236 236 237 237 238 243 248 248 246 247 247 247 247 246 243 241 245 255 262 262 259 258 257 258 259 259 259 259 259 258
266 264 251 246 246 246 244 240 237 237 238 235 232 232 235 237 238 240 243 244 243 243 244 245 246 244 241 236 234 243 254 259 257 256 256 255 255 256 257 258 259 259
270 276 268 257 254 253 248 241 235 234 236 236 235 234 235 238 240 241 242 242 241 239 239 242 244 241 239 237 235 239 248 253 254 254 255 255 254 254 255 257 258 260
Height
5928 5929 5930 5931 5932 5933 5934 5935 5935 5936 5936 5937 5937 5938 5938 5939 5939 5940 5941 5942 5943 5943 5944 5944 5945 5945 5945 5946 5946 5946 5947 5947 5948 5949 5949 5950 5950 5951 5951 5951 5951 5951
5928 5928 5929 5930 5931 5932 5933 5934 5934 5935 5936 5936 5937 5937 5938 5938 5939 5939 5940 5941 5942 5942 5943 5944 5944 5944 5945 5945 5946 5946 5946 5947 5948 5948 5949 5949 5950 5950 5951 5951 5951 5951
5927 5927 5928 5929 5930 5931 5932 5933 5934 5934 5935 5936 5936 5937 5937 5938 5938 5939 5939 5940 5941 5941 5942 5943 5943 5944 5944 5945 5945 5946 5946 5947 5947 5948 5948 5949 5949 5950 5950 5950 5950 5950
5925 5926 5926 5927 5928 5929 5930 5932 5932 5933 5934 5935 5935 5936 5937 5937 5938 5938 5938 5939 5940 5941 5941 5942 5942 5943 5944 5944 5945 5945 5946 5946 5947 5947 5948 5948 5949 5949 5949 5949 5949 5949
5923 5924 5925 5926 5927 5928 5929 5930 5931 5932 5932 5933 5934 5935 5936 5937 5937 5938 5938 5939 5939 5940 5941 5941 5941 5942 5943 5943 5944 5944 5945 5945 5946 5947 5947 5948 5948 5948 5948 5948 5948 5948
5921 5922 5923 5924 5925 5926 5927 5928 5929 5930 5930 5931 5932 5933 5935 5935 5936 5937 5938 5938 5939 5939 5939 5940 5940 5941 5942 5942 5943 5943 5944 5944 5945 5946 5946 5947 5947 5947 5947 5947 5947 5947
5920 5921 5922 5923 5924 5925 5926 5926 5927 5928 5929 5930 5931 5932 5933 5934 5935 5936 5937 5937 5938 5938 5938 5939 5939 5940 5940 5941 5941 5942 5943 5943 5944 5945 5945 5946 5946 5946 5946 5946 5946 5946
5918 5919 5920 5922 5923 5924 5924 5925 5926 5926 5927 5928 5929 5929 5931 5932 5933 5934 5935 5936 5936 5937 5937 5938 5938 5938 5939 5939 5940 5940 5941 5942 5943 5943 5944 5944 5944 5945 5945 5945 5945 5945
5916 5917 5918 5920 5921 5922 5922 5923 5924 5925 5926 5926 5927 5928 5929 5930 5931 5932 5933 5934 5935 5936 5936 5937 5937 5937 5937 5938 5938 5939 5939 5940 5941 5942 5942 5943 5943 5943 5944 5944 5944 5944
5914 5915 5916 5917 5919 5920 5920 5921 5922 5923 5924 5925 5925 5926 5927 5928 5929 5930 5931 5932 5933 5934 5935 5935 5936 5936 5936 5937 5937 5937 5938 5939 5939 5940 5940 5941 5941 5942 5942 5942 5943 5943
5912 5913 5914 5915 5916 5917 5918 5919 5920 5922 5923 5924 5924 5925 5926 5926 5927 5928 5929 5930 5931 5932 5933 5934 5934 5935 5935 5935 5936 5936 5936 5937 5937 5938 5938 5939 5939 5940 5940 5941 5941 5941
5910 5911 5912 5912 5913 5914 5915 5916 5918 5919 5921 5922 5923 5923 5924 5925 5926 5927 5927 5928 5929 5930 5931 5932 5933 5933 5934 5934 5934 5935 5935 5936 5936 5936 5937 5937 5938 5938 5938 5939 5939 5940
5907 5908 5909 5910 5911 5911 5912 5913 5914 5916 5917 5919 5920 5921 5922 5923 5924 5925 5925 5926 5927 5928 5929 5930 5931 5931 5932 5932 5933 5933 5933 5934 5934 5935 5935 5935 5936 5936 5937 5937 5937 5938
5903 5905 5906 5907 5908 5909 5910 5911 5912 5913 5914 5915 5917 5918 5920 5921 5922 5923 5923 5924 5925 5926 5927 5928 5928 5929 5929 5930 5931 5931 5931 5932 5932 5933 5933 5933 5934 5934 5934 5935 5935 5936
5901 5902 5903 5904 5905 5906 5907 5908 5909 5910 5911 5912 5914 5915 5917 5918 5920 5921 5921 5922 5923 5923 5924 5925 5926 5926 5927 5927 5928 5929 5929 5930 5930 5931 5931 5931 5932 5932 5932 5933 5933 5933
5897 5897 5899 5901 5901 5902 5904 5905 5906 5907 5908 5909 5911 5912 5913 5915 5916 5917 5919 5919 5920 5921 5922 5923 5924 5924 5924 5925 5925 5926 5927 5927 5928 5929 5929 5929 5929 5930 5930 5930 5931 5931
5893 5894 5895 5897 5899 5900 5900 5902 5903 5905 5906 5907 5907 5908 5909 5910 5912 5913 5915 5916 5916 5917 5918 5920 5920 5921 5921 5922 5923 5923 5924 5925 5926 5926 5927 5927 5927 5927 5927 5927 5928 5928
5890 5890 5891 5893 5895 5897 5897 5898 5899 5900 5902 5903 5903 5904 5905 5906 5907 5908 5909 5911 5912 5913 5914 5915 5916 5917 5917 5918 5919 5920 5921 5922 5923 5924 5924 5924 5924 5924 5924 5924 5925 5925
5885 5886 5887 5888 5890 5892 5893 5893 5894 5895 5896 5898 5899 5900 5900 5901 5902 5903 5904 5905 5907 5908 5910 5911 5911 5912 5913 5914 5915 5916 5918 5919 5920 5920 5920 5921 5921 5921 5921 5921 5921 5922
5880 5881 5882 5882 5884 5887 5888 5888 5888 5889 5891 5892 5893 5895 5896 5897 5898 5899 5900 5901 5902 5903 5905 5906 5906 5907 5908 5909 5911 5912 5914 5915 5916 5916 5916 5917 5918 5918 5918 5918 5918 5918
5875 5875 5876 5877 5879 5882 5883 5882 5883 5883 5884 5885 5886 5890 5893 5894 5895 5895 5895 5896 5898 5899 5901 5901 5902 5903 5904 5906 5907 5908 5910 5911 5912 5913 5913 5914 5914 5914 5914 5914 5914 5915
5870 5870 5871 5872 5873 5876 5877 5878 5879 5879 5878 5879 5882 5886 5888 5889 5890 5891 5891 5892 5894 5895 5896 5897 5898 5899 5900 5901 5903 5904 5906 5907 5909 5909 5910 5910 5910 5911 5911 5911 5911 5911
5865 5865 5866 5867 5868 5869 5870 5873 5875 5875 5874 5877 5881 5882 5882 5883 5884 5885 5887 5888 5889 5890 5891 5893 5893 5894 5895 5897 5899 5900 5901 5902 5904 5904 5905 5906 5906 5906 5907 5907 5907 5907
5860 5860 5860 5861 5862 5862 5863 5866 5869 5869 5869 5872 5875 5875 5876 5876 5877 5879 5881 5883 5884 5886 5888 5889 5889 5890 5891 5891 5894 5896 5896 5897 5898 5899 5900 5901 5901 5902 5902 5903 5903 5903
5856 5855 5855 5856 5856 5856 5857 5859 5862 5863 5864 5866 5867 5867 5869 5870 5872 5874 5875 5876 5879 5882 5883 5884 5886 5887 5887 5886 5887 5890 5892 5893 5894 5894 5895 5896 5897 5898 5898 5898 5899 5899
5852 5852 5852 5852 5852 5852 5851 5852 5855 5858 5859 5860 5861 5862 5864 5865 5866 5868 5869 5871 5874 5876 5877 5879 5881 5883 5883 5882 5883 5885 5887 5889 5889 5889 5890 5891 5892 5893 5894 5894 5895 5895